Location: Wildlife_Club
(35.6000°N, 81.4330°W)
Time: 19:29:36
(UTC-04:00)

Transit 2A Rocket - All Passes

Search period start: 17 June 2019 00:00
Search period end: 27 June 2019 00:00
Orbit: 586 x 917 km, 66.7° (Epoch: 17 June)

Date Brightness Start Highest point End Pass type
(mag) Time Alt. Az. Time Alt. Az. Time Alt. Az.
17 Jun - 11:34:29 10° S 11:40:02 37° ESE 11:45:33 10° NE daylight
17 Jun - 13:17:11 10° WSW 13:22:40 34° NW 13:28:05 10° N daylight
17 Jun - 20:23:14 10° NNE 20:26:08 15° NE 20:28:53 10° E daylight
17 Jun - 22:04:17 10° NNW 22:09:22 69° WSW 22:13:59 10° SSE visible
18 Jun - 10:53:16 10° SSE 10:57:45 22° ESE 11:02:14 10° ENE daylight
18 Jun - 12:34:00 10° SW 12:39:59 55° WNW 12:45:54 10° NNE daylight
18 Jun - 21:21:45 10° NNW 21:26:53 63° ENE 21:31:30 10° SE visible
18 Jun - 23:07:02 10° W 23:08:39 12° WSW 23:10:14 10° WSW visible
19 Jun - 10:13:32 10° ESE 10:15:35 12° ESE 10:17:38 10° E daylight
19 Jun - 11:51:17 10° SSW 11:57:25 90° SSE 12:03:29 10° NNE daylight
19 Jun - 13:37:12 10° W 13:40:48 16° NW 13:44:22 10° N daylight
19 Jun - 20:39:31 10° N 20:44:14 34° NE 20:48:32 10° ESE daylight
19 Jun - 22:22:38 10° NW 22:26:31 23° WSW 22:30:09 10° SSW visible
20 Jun - 11:09:04 10° S 11:14:58 54° ESE 11:20:50 10° NE daylight
20 Jun - 12:52:57 10° WSW 12:57:53 25° NW 13:02:45 10° N daylight
20 Jun - 19:57:36 10° N 20:01:25 20° NE 20:04:58 10° E daylight
20 Jun - 21:39:29 10° NW 21:44:16 44° WSW 21:48:38 10° S visible
21 Jun - 10:27:22 10° SSE 10:32:37 31° ESE 10:37:51 10° NE daylight
21 Jun - 12:09:25 10° SW 12:15:07 40° WNW 12:20:44 10° NNE daylight
21 Jun - 19:16:25 10° NNE 19:18:27 12° NE 19:20:26 10° ENE daylight
21 Jun - 20:56:46 10° NNW 21:01:53 86° WSW 21:06:30 10° SSE daylight
22 Jun - 09:46:28 10° SE 09:50:23 18° ESE 09:54:18 10° ENE daylight
22 Jun - 11:26:25 10° SW 11:32:29 65° WNW 11:38:28 10° NNE daylight
22 Jun - 13:14:12 10° WNW 13:16:11 12° NW 13:18:08 10° NNW daylight
22 Jun - 20:14:21 10° NNW 20:19:20 50° ENE 20:23:51 10° SE daylight
22 Jun - 21:58:37 10° WNW 22:01:16 15° WSW 22:03:48 10° SW visible
23 Jun - 10:43:52 10° SSW 10:49:57 76° ESE 10:55:59 10° NNE daylight
23 Jun - 12:29:03 10° W 12:33:10 18° NW 12:37:14 10° N daylight
23 Jun - 19:32:13 10° N 19:36:38 28° NE 19:40:41 10° ESE daylight
23 Jun - 21:14:53 10° NW 21:19:07 28° WSW 21:23:01 10° SSW visible
24 Jun - 10:01:48 10° S 10:07:32 44° ESE 10:13:14 10° NE daylight
24 Jun - 11:45:04 10° WSW 11:50:19 29° NW 11:55:28 10° N daylight
24 Jun - 18:50:28 10° N 18:53:46 17° NE 18:56:53 10° E daylight
24 Jun - 20:31:54 10° NW 20:36:49 55° WSW 20:41:16 10° S daylight
25 Jun - 09:20:18 10° SSE 09:25:13 26° ESE 09:30:06 10° NE daylight
25 Jun - 11:01:44 10° SW 11:07:36 47° WNW 11:13:21 10° NNE daylight
25 Jun - 19:49:18 10° NNW 19:54:22 77° ENE 19:58:58 10° SSE daylight
26 Jun - 08:39:52 10° SE 08:43:01 15° ESE 08:46:09 10° ENE daylight
26 Jun - 10:18:52 10° SSW 10:25:00 78° WNW 10:31:01 10° NNE daylight
26 Jun - 12:05:36 10° WNW 12:08:31 14° NW 12:11:22 10° NNW daylight
26 Jun - 19:06:58 10° NNW 19:11:47 40° ENE 19:16:08 10° SE daylight
26 Jun - 20:50:35 10° WNW 20:53:53 18° WSW 20:57:00 10° SSW daylight
